Time,TemperatureF,DewpointF,PressureIn,WindDirection,WindDirectionDegrees,WindSpeedMPH,WindSpeedGustMPH,Humidity,HourlyPrecipIn,Conditions,Clouds,dailyrainin,SoftwareType,DateUTC
2013-03-20 00:03:00,25.0,17.0,29.82,NNW,329,2.0,11.0,70,0.00,,,0.00,,2013-03-20 04:03:00,
2013-03-20 00:12:00,25.0,17.0,29.82,NNW,329,2.0,11.0,70,0.00,,,0.00,,2013-03-20 04:12:00,
2013-03-20 00:23:00,25.0,17.0,29.82,NNW,328,3.0,10.0,70,0.00,,,0.00,,2013-03-20 04:23:00,
2013-03-20 00:32:00,25.0,17.0,29.82,NW,315,3.0,10.0,70,0.00,,,0.00,,2013-03-20 04:32:00,
2013-03-20 00:43:00,25.0,17.0,29.82,NW,315,3.0,10.0,70,0.00,,,0.00,,2013-03-20 04:43:00,
2013-03-20 00:53:00,24.0,16.0,29.82,NNW,327,5.0,14.0,70,0.00,,,0.00,,2013-03-20 04:53:00,
2013-03-20 01:03:00,24.0,14.0,29.82,NNW,335,3.0,8.0,66,0.00,,,0.00,,2013-03-20 05:03:00,
2013-03-20 01:12:00,24.0,14.0,29.82,West,271,5.0,7.0,66,0.00,,,0.00,,2013-03-20 05:12:00,
2013-03-20 01:23:00,24.0,14.0,29.82,West,271,5.0,7.0,66,0.00,,,0.00,,2013-03-20 05:23:00,
2013-03-20 01:32:00,24.0,15.0,29.81,NW,304,5.0,10.0,68,0.00,,,0.00,,2013-03-20 05:32:00,
2013-03-20 01:42:00,24.0,15.0,29.81,NW,304,5.0,10.0,68,0.00,,,0.00,,2013-03-20 05:42:00,
2013-03-20 01:53:00,24.0,14.0,29.82,NW,307,2.0,13.0,65,0.00,,,0.00,,2013-03-20 05:53:00,
2013-03-20 02:02:00,24.0,14.0,29.82,NW,311,3.0,10.0,66,0.00,,,0.00,,2013-03-20 06:02:00,
2013-03-20 02:12:00,24.0,14.0,29.82,NW,311,3.0,10.0,66,0.00,,,0.00,,2013-03-20 06:12:00,
2013-03-20 02:22:00,24.0,15.0,29.82,WNW,295,5.0,12.0,67,0.00,,,0.00,,2013-03-20 06:22:00,
2013-03-20 02:32:00,23.0,14.0,29.82,WSW,250,3.0,8.0,67,0.00,,,0.00,,2013-03-20 06:32:00,
2013-03-20 02:42:00,23.0,14.0,29.82,WSW,250,3.0,8.0,67,0.00,,,0.00,,2013-03-20 06:42:00,
2013-03-20 02:53:00,23.0,13.0,29.82,NW,310,4.0,13.0,66,0.00,,,0.00,,2013-03-20 06:53:00,
2013-03-20 03:02:00,23.0,13.0,29.82,NW,307,4.0,12.0,66,0.00,,,0.00,,2013-03-20 07:02:00,
2013-03-20 03:12:00,23.0,13.0,29.82,NW,307,4.0,12.0,66,0.00,,,0.00,,2013-03-20 07:12:00,
2013-03-20 03:22:00,23.0,14.0,29.83,NW,313,5.0,10.0,67,0.00,,,0.00,,2013-03-20 07:22:00,
2013-03-20 03:32:00,23.0,13.0,29.82,NW,312,3.0,11.0,66,0.00,,,0.00,,2013-03-20 07:32:00,
2013-03-20 03:42:00,23.0,13.0,29.82,NW,312,3.0,11.0,66,0.00,,,0.00,,2013-03-20 07:42:00,
2013-03-20 03:52:00,23.0,13.0,29.82,NW,307,4.0,9.0,66,0.00,,,0.00,,2013-03-20 07:52:00,
2013-03-20 04:02:00,23.0,13.0,29.82,NNW,333,3.0,9.0,65,0.00,,,0.00,,2013-03-20 08:02:00,
2013-03-20 04:12:00,23.0,13.0,29.82,NNW,333,3.0,9.0,65,0.00,,,0.00,,2013-03-20 08:12:00,
2013-03-20 04:22:00,23.0,13.0,29.81,NW,304,6.0,10.0,66,0.00,,,0.00,,2013-03-20 08:22:00,
2013-03-20 04:32:00,23.0,13.0,29.81,WSW,246,3.0,11.0,65,0.00,,,0.00,,2013-03-20 08:32:00,
2013-03-20 04:42:00,23.0,13.0,29.81,WSW,246,3.0,11.0,65,0.00,,,0.00,,2013-03-20 08:42:00,
2013-03-20 04:52:00,22.0,12.0,29.81,NNW,338,2.0,14.0,65,0.00,,,0.00,,2013-03-20 08:52:00,
2013-03-20 05:02:00,22.0,12.0,29.81,WNW,296,10.0,10.0,66,0.00,,,0.00,,2013-03-20 09:02:00,
2013-03-20 05:12:00,22.0,12.0,29.81,WNW,296,10.0,10.0,66,0.00,,,0.00,,2013-03-20 09:12:00,
2013-03-20 05:22:00,22.0,12.0,29.81,North,359,1.0,6.0,65,0.00,,,0.00,,2013-03-20 09:22:00,
2013-03-20 05:33:00,22.0,12.0,29.81,NNW,336,2.0,9.0,66,0.00,,,0.00,,2013-03-20 09:33:00,
2013-03-20 05:43:00,22.0,12.0,29.81,NNW,336,2.0,9.0,66,0.00,,,0.00,,2013-03-20 09:43:00,
2013-03-20 05:53:00,22.0,12.0,29.81,NW,312,5.0,10.0,66,0.00,,,0.00,,2013-03-20 09:53:00,
2013-03-20 06:03:00,22.0,12.0,29.81,NW,306,0.0,11.0,66,0.00,,,0.00,,2013-03-20 10:03:00,
2013-03-20 06:13:00,22.0,12.0,29.81,NW,306,0.0,11.0,66,0.00,,,0.00,,2013-03-20 10:13:00,
2013-03-20 06:23:00,22.0,12.0,29.81,NW,317,1.0,11.0,66,0.00,,,0.00,,2013-03-20 10:23:00,
2013-03-20 06:33:00,22.0,12.0,29.82,North,352,0.0,9.0,66,0.00,,,0.00,,2013-03-20 10:33:00,
2013-03-20 06:43:00,22.0,12.0,29.82,North,352,0.0,9.0,66,0.00,,,0.00,,2013-03-20 10:43:00,
2013-03-20 06:53:00,22.0,12.0,29.82,NW,306,4.0,14.0,64,0.00,,,0.00,,2013-03-20 10:53:00,
2013-03-20 07:03:00,21.0,11.0,29.82,NW,317,5.0,10.0,66,0.00,,,0.00,,2013-03-20 11:03:00,
2013-03-20 07:12:00,21.0,11.0,29.82,NW,317,5.0,10.0,66,0.00,,,0.00,,2013-03-20 11:12:00,
2013-03-20 07:22:00,21.0,12.0,29.82,NW,322,3.0,9.0,67,0.00,,,0.00,,2013-03-20 11:22:00,
2013-03-20 07:32:00,21.0,11.0,29.83,WNW,288,2.0,8.0,66,0.00,,,0.00,,2013-03-20 11:32:00,
2013-03-20 07:42:00,21.0,11.0,29.83,WNW,288,2.0,8.0,66,0.00,,,0.00,,2013-03-20 11:42:00,
2013-03-20 07:52:00,21.0,11.0,29.83,NW,310,3.0,11.0,65,0.00,,,0.00,,2013-03-20 11:52:00,
2013-03-20 08:02:00,21.0,12.0,29.83,NW,316,8.0,13.0,69,0.00,,,0.00,,2013-03-20 12:02:00,
2013-03-20 08:12:00,21.0,12.0,29.83,NW,316,8.0,13.0,69,0.00,,,0.00,,2013-03-20 12:12:00,
2013-03-20 08:22:00,20.0,11.0,29.83,NNW,328,4.0,13.0,69,0.00,,,0.00,,2013-03-20 12:22:00,
2013-03-20 08:32:00,20.0,11.0,29.83,NNW,336,5.0,8.0,66,0.00,,,0.00,,2013-03-20 12:32:00,
2013-03-20 08:42:00,20.0,11.0,29.83,NNW,336,5.0,8.0,66,0.00,,,0.00,,2013-03-20 12:42:00,
2013-03-20 08:52:00,20.0,9.0,29.83,NW,317,5.0,14.0,63,0.00,,,0.00,,2013-03-20 12:52:00,
2013-03-20 09:03:00,20.0,9.0,29.83,NNW,327,3.0,14.0,62,0.00,,,0.00,,2013-03-20 13:03:00,
2013-03-20 09:12:00,20.0,9.0,29.83,NNW,327,3.0,14.0,62,0.00,,,0.00,,2013-03-20 13:12:00,
2013-03-20 09:22:00,21.0,9.0,29.83,WNW,303,4.0,11.0,60,0.00,,,0.00,,2013-03-20 13:22:00,
2013-03-20 09:32:00,21.0,10.0,29.82,West,276,2.0,10.0,61,0.00,,,0.00,,2013-03-20 13:32:00,
2013-03-20 09:42:00,21.0,10.0,29.82,West,276,2.0,10.0,61,0.00,,,0.00,,2013-03-20 13:42:00,
2013-03-20 09:53:00,22.0,10.0,29.82,NW,316,3.0,12.0,59,0.00,,,0.00,,2013-03-20 13:53:00,
2013-03-20 10:03:00,22.0,10.0,29.82,WNW,288,10.0,15.0,58,0.00,,,0.00,,2013-03-20 14:03:00,
2013-03-20 10:12:00,22.0,10.0,29.82,WNW,288,10.0,15.0,58,0.00,,,0.00,,2013-03-20 14:12:00,
2013-03-20 10:23:00,22.0,10.0,29.82,SSW,196,2.0,13.0,59,0.00,,,0.00,,2013-03-20 14:23:00,
2013-03-20 10:34:00,22.0,10.0,29.82,NW,321,9.0,11.0,59,0.00,,,0.00,,2013-03-20 14:34:00,
2013-03-20 10:42:00,22.0,10.0,29.82,NW,321,9.0,11.0,59,0.00,,,0.00,,2013-03-20 14:42:00,
2013-03-20 10:53:00,23.0,11.0,29.83,WNW,297,4.0,17.0,59,0.00,,,0.00,,2013-03-20 14:53:00,
2013-03-20 11:02:00,23.0,11.0,29.83,NW,324,2.0,9.0,60,0.00,,,0.00,,2013-03-20 15:02:00,
2013-03-20 11:12:00,22.0,11.0,29.83,West,268,8.0,17.0,62,0.00,,,0.00,,2013-03-20 15:12:00,
2013-03-20 11:22:00,22.0,11.0,29.83,West,268,8.0,17.0,62,0.00,,,0.00,,2013-03-20 15:22:00,
2013-03-20 11:33:00,22.0,11.0,29.83,NNW,327,6.0,12.0,62,0.00,,,0.00,,2013-03-20 15:33:00,
2013-03-20 11:43:00,22.0,11.0,29.83,NNW,327,6.0,12.0,62,0.00,,,0.00,,2013-03-20 15:43:00,
2013-03-20 11:53:00,22.0,12.0,29.83,WNW,295,2.0,16.0,66,0.00,,,0.00,,2013-03-20 15:53:00,
2013-03-20 12:03:00,22.0,12.0,29.84,NW,315,3.0,10.0,65,0.00,,,0.00,,2013-03-20 16:03:00,
2013-03-20 12:13:00,22.0,12.0,29.84,NW,315,3.0,10.0,65,0.00,,,0.00,,2013-03-20 16:13:00,
2013-03-20 12:23:00,23.0,13.0,29.84,NW,308,7.0,10.0,64,0.00,,,0.00,,2013-03-20 16:23:00,
2013-03-20 12:33:00,23.0,13.0,29.84,NW,315,5.0,8.0,66,0.00,,,0.00,,2013-03-20 16:33:00,
2013-03-20 12:43:00,23.0,13.0,29.84,NW,315,5.0,8.0,66,0.00,,,0.00,,2013-03-20 16:43:00,
2013-03-20 12:53:00,23.0,13.0,29.84,WNW,283,1.0,11.0,66,0.00,,,0.00,,2013-03-20 16:53:00,
2013-03-20 13:03:00,25.0,13.0,29.84,NW,313,3.0,11.0,61,0.00,,,0.00,,2013-03-20 17:03:00,
2013-03-20 13:12:00,25.0,13.0,29.84,NW,313,3.0,11.0,61,0.00,,,0.00,,2013-03-20 17:12:00,
2013-03-20 13:22:00,24.0,13.0,29.84,West,280,7.0,14.0,61,0.00,,,0.00,,2013-03-20 17:22:00,
2013-03-20 13:32:00,24.0,13.0,29.84,WNW,301,6.0,10.0,61,0.00,,,0.00,,2013-03-20 17:32:00,
2013-03-20 13:42:00,24.0,13.0,29.84,WNW,301,6.0,10.0,61,0.00,,,0.00,,2013-03-20 17:42:00,
2013-03-20 13:53:00,24.0,13.0,29.84,NW,310,8.0,12.0,62,0.01,,,0.01,,2013-03-20 17:53:00,
2013-03-20 14:02:00,24.0,13.0,29.85,WNW,301,6.0,11.0,62,0.01,,,0.01,,2013-03-20 18:02:00,
2013-03-20 14:12:00,24.0,13.0,29.85,WNW,301,6.0,11.0,62,0.01,,,0.01,,2013-03-20 18:12:00,
2013-03-20 14:22:00,24.0,13.0,29.84,West,274,10.0,16.0,63,0.01,,,0.01,,2013-03-20 18:22:00,
2013-03-20 14:33:00,24.0,14.0,29.84,West,265,4.0,12.0,64,0.01,,,0.01,,2013-03-20 18:33:00,
2013-03-20 14:42:00,24.0,14.0,29.84,West,265,4.0,12.0,64,0.01,,,0.01,,2013-03-20 18:42:00,
2013-03-20 14:53:00,24.0,13.0,29.84,West,273,4.0,13.0,63,0.01,,,0.02,,2013-03-20 18:53:00,
2013-03-20 15:02:00,24.0,14.0,29.85,West,263,2.0,12.0,66,0.01,,,0.02,,2013-03-20 19:02:00,
2013-03-20 15:12:00,24.0,14.0,29.85,West,263,2.0,12.0,66,0.01,,,0.02,,2013-03-20 19:12:00,
2013-03-20 15:22:00,24.0,16.0,29.85,West,261,5.0,12.0,71,0.02,,,0.03,,2013-03-20 19:22:00,
2013-03-20 15:32:00,24.0,15.0,29.85,WNW,299,5.0,10.0,69,0.02,,,0.03,,2013-03-20 19:32:00,
2013-03-20 15:42:00,24.0,15.0,29.85,WNW,299,5.0,10.0,69,0.02,,,0.03,,2013-03-20 19:42:00,
2013-03-20 15:53:00,24.0,16.0,29.85,West,269,5.0,11.0,71,0.02,,,0.03,,2013-03-20 19:53:00,
2013-03-20 16:02:00,24.0,14.0,29.85,WSW,243,6.0,14.0,66,0.02,,,0.04,,2013-03-20 20:02:00,
2013-03-20 16:13:00,24.0,14.0,29.85,WSW,243,6.0,14.0,66,0.02,,,0.04,,2013-03-20 20:13:00,
2013-03-20 16:22:00,24.0,14.0,29.85,West,272,8.0,14.0,65,0.02,,,0.04,,2013-03-20 20:22:00,
2013-03-20 16:32:00,25.0,15.0,29.85,West,280,7.0,13.0,66,0.01,,,0.04,,2013-03-20 20:32:00,
2013-03-20 16:42:00,25.0,15.0,29.85,West,280,7.0,13.0,66,0.01,,,0.04,,2013-03-20 20:42:00,
2013-03-20 16:53:00,24.0,14.0,29.85,West,260,6.0,12.0,66,0.02,,,0.04,,2013-03-20 20:53:00,
2013-03-20 17:02:00,24.0,15.0,29.85,West,273,3.0,13.0,68,0.01,,,0.05,,2013-03-20 21:02:00,
2013-03-20 17:12:00,24.0,15.0,29.85,West,273,3.0,13.0,68,0.01,,,0.05,,2013-03-20 21:12:00,
2013-03-20 17:22:00,24.0,16.0,29.85,WSW,256,6.0,12.0,70,0.01,,,0.05,,2013-03-20 21:22:00,
2013-03-20 17:33:00,24.0,16.0,29.85,West,272,3.0,10.0,72,0.01,,,0.05,,2013-03-20 21:33:00,
2013-03-20 17:42:00,24.0,16.0,29.85,West,272,3.0,10.0,72,0.01,,,0.05,,2013-03-20 21:42:00,
2013-03-20 17:53:00,23.0,17.0,29.86,NW,312,2.0,11.0,79,0.01,,,0.05,,2013-03-20 21:53:00,
2013-03-20 18:03:00,23.0,19.0,29.86,West,264,7.0,10.0,83,0.00,,,0.05,,2013-03-20 22:03:00,
2013-03-20 18:13:00,23.0,19.0,29.86,West,264,7.0,10.0,83,0.00,,,0.05,,2013-03-20 22:13:00,
2013-03-20 18:23:00,23.0,19.0,29.85,WNW,302,4.0,11.0,84,0.00,,,0.05,,2013-03-20 22:23:00,
2013-03-20 18:33:00,23.0,19.0,29.86,West,261,2.0,10.0,86,0.00,,,0.05,,2013-03-20 22:33:00,
2013-03-20 18:42:00,23.0,19.0,29.86,West,261,2.0,10.0,86,0.00,,,0.05,,2013-03-20 22:42:00,
2013-03-20 18:53:00,23.0,19.0,29.86,WNW,302,3.0,8.0,84,0.00,,,0.05,,2013-03-20 22:53:00,
2013-03-20 19:02:00,23.0,19.0,29.86,WNW,291,3.0,8.0,86,0.00,,,0.05,,2013-03-20 23:02:00,
2013-03-20 19:12:00,23.0,19.0,29.86,WNW,291,3.0,8.0,86,0.00,,,0.05,,2013-03-20 23:12:00,
2013-03-20 19:23:00,22.0,18.0,29.87,WNW,284,3.0,11.0,85,0.00,,,0.05,,2013-03-20 23:23:00,
2013-03-20 19:32:00,22.0,18.0,29.87,West,263,3.0,10.0,85,0.00,,,0.05,,2013-03-20 23:32:00,
2013-03-20 19:42:00,22.0,18.0,29.87,West,263,3.0,10.0,85,0.00,,,0.05,,2013-03-20 23:42:00,
2013-03-20 19:53:00,22.0,18.0,29.87,WNW,296,3.0,9.0,86,0.00,,,0.05,,2013-03-20 23:53:00,
2013-03-20 20:02:00,22.0,19.0,29.88,NW,316,3.0,8.0,87,0.00,,,0.05,,2013-03-21 00:02:00,
2013-03-20 20:12:00,22.0,19.0,29.88,NW,316,3.0,8.0,87,0.00,,,0.05,,2013-03-21 00:12:00,
2013-03-20 20:23:00,22.0,19.0,29.88,WNW,303,4.0,8.0,88,0.00,,,0.05,,2013-03-21 00:23:00,
2013-03-20 20:33:00,22.0,19.0,29.88,WNW,288,3.0,13.0,88,0.00,,,0.05,,2013-03-21 00:33:00,
2013-03-20 20:42:00,22.0,19.0,29.88,WNW,288,3.0,13.0,88,0.00,,,0.05,,2013-03-21 00:42:00,
2013-03-20 20:53:00,22.0,19.0,29.88,West,262,6.0,10.0,89,0.00,,,0.05,,2013-03-21 00:53:00,
2013-03-20 21:02:00,22.0,19.0,29.88,West,277,5.0,7.0,89,0.00,,,0.05,,2013-03-21 01:02:00,
2013-03-20 21:12:00,22.0,19.0,29.88,West,277,5.0,7.0,89,0.00,,,0.05,,2013-03-21 01:12:00,
2013-03-20 21:22:00,22.0,19.0,29.87,West,274,3.0,11.0,89,0.00,,,0.05,,2013-03-21 01:22:00,
2013-03-20 21:33:00,22.0,20.0,29.87,WNW,301,3.0,10.0,91,0.00,,,0.05,,2013-03-21 01:33:00,
2013-03-20 21:42:00,22.0,20.0,29.87,WNW,301,3.0,10.0,91,0.00,,,0.05,,2013-03-21 01:42:00,
2013-03-20 21:53:00,22.0,20.0,29.86,North,350,2.0,8.0,90,0.00,,,0.05,,2013-03-21 01:53:00,
2013-03-20 22:02:00,22.0,19.0,29.87,West,263,9.0,13.0,89,0.00,,,0.05,,2013-03-21 02:02:00,
2013-03-20 22:12:00,22.0,19.0,29.87,West,263,9.0,13.0,89,0.00,,,0.05,,2013-03-21 02:12:00,
2013-03-20 22:22:00,22.0,19.0,29.86,WNW,290,4.0,11.0,88,0.00,,,0.05,,2013-03-21 02:22:00,
2013-03-20 22:33:00,22.0,19.0,29.86,North,0,3.0,14.0,88,0.00,,,0.05,,2013-03-21 02:33:00,
2013-03-20 22:42:00,22.0,19.0,29.86,North,0,3.0,14.0,88,0.00,,,0.05,,2013-03-21 02:42:00,
2013-03-20 22:52:00,22.0,19.0,29.86,North,0,3.0,14.0,88,0.00,,,0.05,,2013-03-21 02:52:00,
2013-03-20 23:02:00,22.0,19.0,29.85,NNW,337,4.0,10.0,87,0.00,,,0.05,,2013-03-21 03:02:00,
2013-03-20 23:12:00,22.0,19.0,29.85,NNW,337,4.0,10.0,87,0.00,,,0.05,,2013-03-21 03:12:00,
2013-03-20 23:22:00,23.0,20.0,29.85,NNE,29,1.0,11.0,87,0.00,,,0.05,,2013-03-21 03:22:00,
2013-03-20 23:33:00,23.0,20.0,29.84,West,279,4.0,16.0,87,0.00,,,0.05,,2013-03-21 03:33:00,
2013-03-20 23:43:00,23.0,20.0,29.84,West,279,4.0,16.0,87,0.00,,,0.05,,2013-03-21 03:43:00,
2013-03-20 23:53:00,22.0,19.0,29.84,NW,305,7.0,10.0,88,0.00,,,0.05,,2013-03-21 03:53:00,